Location: Copper Breaks State Park
(34.1132°N, 99.7492°W)
Time: 12:16:55
(UTC-05:00)

Daily predictions for brighter satellites

Satellite Brightness Start Highest point End
(mag) Time Altitude Azimuth Time Altitude Azimuth Time Altitude Azimuth
Cosmos 1455 3.6 20:37:09 10° SE 20:39:55 20° E 20:42:44 10° NE
CZ-2D R/B 3.9 20:36:43 10° SE 20:40:13 36° ENE 20:43:44 10° N
USA 186 3.3 20:41:41 10° ENE 20:41:53 10° ENE 20:42:06 10° ENE
COSMOS 2428 2.7 20:36:27 10° SSW 20:42:10 79° ESE 20:47:54 10° NNE
Sich 1 3.8 20:39:45 10° NNE 20:43:32 30° ENE 20:47:18 10° SE
Cosmos 2333 4.2 20:38:05 10° SSW 20:43:45 85° ESE 20:49:24 10° NNE
Cosmos 1844 Rocket 3.2 20:38:57 10° N 20:44:19 43° ENE 20:49:39 10° SE
Cosmos 2263 Rocket 4.0 20:42:01 10° NW 20:47:01 33° WSW 20:51:59 10° SSW
Envisat 3.2 20:44:45 10° SSE 20:49:40 54° ENE 20:54:36 10° N
Cosmos 1844 4.4 20:45:52 10° N 20:51:09 38° ENE 20:56:27 10° SE
Cosmos 1892 3.7 20:47:52 10° NNE 20:51:14 28° ENE 20:54:35 10° SE
Cosmos 2219 Rocket 2.2 20:45:57 10° S 20:51:32 64° ESE 20:57:07 10° NNE
YAOGAN 6 3.9 20:48:58 10° SE 20:51:52 23° ENE 20:54:48 10° NNE
Cosmos 2251 Rocket 3.9 20:47:23 10° N 20:52:34 47° ENE 20:57:42 10° SE
Meteor 2-2 Rocket 4.4 20:47:16 10° S 20:52:54 55° E 20:58:40 10° NNE
Cosmos 2237 Rocket 2.9 20:48:57 10° SSE 20:53:44 29° ESE 20:58:30 10° NE
Cosmos 1633 Rocket 3.5 21:01:30 10° N 21:05:37 41° E 21:09:43 10° SSE
Cosmos 2278 Rocket 3.6 21:02:24 10° N 21:06:42 22° ENE 21:09:51 14° E
Nadezhda 3 Rocket 4.1 21:02:01 10° N 21:08:16 60° E 21:14:32 10° SSE
Meteor 2-15 Rocket 4.5 21:05:38 10° N 21:11:44 63° E 21:17:46 10° SSE
Cosmos 1340 3.4 21:08:17 10° SSW 21:12:01 57° W 21:15:45 10° N
Cosmos 1515 Rocket 4.3 21:09:03 10° SSE 21:13:02 33° E 21:17:01 10° NNE
Cosmos 2228 Rocket 3.6 21:14:04 10° SSE 21:18:05 37° E 21:22:08 10° NNE
Sakura Rocket 3.7 21:14:25 10° WSW 21:19:03 39° S 21:21:08 22° ESE
Thor Agena Rocket 3.8 21:19:07 10° N 21:24:22 77° WNW 21:29:38 10° SSW
ASTRO E2 3.7 21:21:33 10° SW 21:25:02 28° SSE 21:26:03 25° SE
SL-24 R/B - RUBIN 2 3.5 21:21:22 10° NNW 21:25:42 85° WSW 21:28:55 18° SSE
Cosmos 1825 3.5 21:26:45 10° NNE 21:29:46 22° ENE 21:29:46 22° ENE
OAO 2 Rocket 3.4 21:25:37 10° W 21:30:50 75° SSW 21:33:39 27° ESE
Cosmos 1328 Rocket 3.5 21:27:17 10° S 21:31:41 87° E 21:36:08 10° N
Spot 2 Rocket 3.7 21:29:13 20° SE 21:32:32 52° ENE 21:37:27 10° N
ATLAS CENTAUR R/B 2.3 21:30:06 10° SW 21:33:35 44° WNW 21:37:11 10° NNE
ATLAS 2AS CENTAUR R/B 3.1 21:27:38 10° NNW 21:35:21 57° NE 21:39:43 25° SE
SL-8 R/B 4.3 21:31:32 10° WSW 21:36:13 57° NW 21:40:57 10° NE
Resurs 01 Rocket 1.6 21:39:36 19° SSE 21:42:47 90° WSW 21:47:14 10° NNW
SL-16 R/B 2.9 21:43:11 30° ESE 21:43:54 31° ESE 21:48:48 10° NE
Cosmos 2344 4.2 21:40:49 10° SSE 21:47:20 30° ESE 21:53:49 10° NE
Cosmos 1470 Rocket 3.5 21:44:27 10° N 21:48:51 68° E 21:50:30 37° SSE
ARGOS 4.0 21:48:16 28° E 21:49:14 30° ENE 21:53:50 10° N
OAO 3 Copernicus 4.3 21:45:18 10° WSW 21:50:14 58° SSE 21:51:49 39° ESE
Cosmos 1959 Rocket 4.4 21:45:47 12° S 21:51:30 62° E 21:57:32 10° NNE
Cosmos 1939 Rocket 3.4 21:49:00 17° S 21:51:45 53° W 21:55:33 10° NNW
Cosmos 1869 3.3 21:55:17 56° ESE 21:55:38 59° E 21:59:35 10° NNE
Meteor 2-3 Rocket 3.9 21:52:25 10° NNW 21:58:00 70° W 22:02:32 16° S
Meteor 2-10 Rocket 3.7 22:01:53 36° SSE 22:04:04 58° E 22:09:46 10° NNE
Cosmos 2218 Rocket 4.0 22:02:37 10° S 22:08:58 88° E 22:15:24 10° N
ERS-1 Rocket 3.9 22:10:08 31° ENE 22:10:08 31° ENE 22:14:09 10° N
SL-08 R/B 4.4 22:08:42 27° S 22:12:23 74° E 22:18:46 10° N
Cosmos 1408 2.7 22:09:08 10° N 22:12:37 73° WNW 22:12:37 73° WNW
Cosmos 407 Rocket 4.3 22:10:12 10° N 22:14:31 34° ENE 22:14:31 34° ENE
Cosmos 1151 Rocket 4.2 22:12:45 10° SSW 22:16:45 40° W 22:20:48 10° N
H-2A R/B 2.6 22:17:10 40° ENE 22:17:10 40° ENE 22:21:29 10° N
Cosmos 1933 Rocket 3.8 22:13:05 10° NNW 22:17:25 66° W 22:18:15 52° SSW
USA 267 3.3 22:11:25 10° NE 22:17:44 50° SE 22:24:01 10° SSW
Cosmos 2366 rocket 4.0 22:15:37 18° S 22:20:22 83° W 22:26:41 10° N
Cosmos 1371 Rocket 4.3 22:15:14 10° SSW 22:20:30 67° WNW 22:25:50 10° NNE
Cosmos 2333 Rocket 4.4 22:16:49 10° WSW 22:21:25 25° WNW 22:26:01 10° N
MetOp-A 3.9 22:32:42 78° ESE 22:32:54 80° ENE 22:38:16 10° N
Cosmos 2237 Rocket 3.9 22:32:41 10° SW 22:37:38 31° WNW 22:42:37 10° N
Cosmos 1339 Rocket 4.4 22:35:13 10° N 22:41:20 81° W 22:42:24 62° SSW
Cosmos 2056 Rocket 4.2 22:37:10 12° SSW 22:42:00 54° WNW 22:47:18 10° N
Terra 4.1 22:48:17 14° NNE 22:48:17 14° NNE 22:49:23 10° NNE
Cosmos 2098 Rocket 4.5 22:47:47 30° WSW 22:49:04 36° W 22:52:53 10° NNW
Cosmos 2278 Rocket 2.9 22:45:35 10° NW 22:50:59 46° WSW 22:51:44 43° SW
SPOT 5 4.4 23:07:48 28° N 23:07:48 28° N 23:09:58 10° N
Lacrosse 5 4.5 23:08:33 10° NNE 23:09:25 10° NNE 23:09:43 10° NNE
ATLAS 2AS CENTAUR R/B 4.2 23:19:43 10° NW 23:25:43 26° WSW 23:27:11 24° SW
SL-16 R/B 3.8 23:24:48 19° WSW 23:27:54 30° WNW 23:32:52 10° N
Cosmos 1943 Rocket 4.4 23:34:27 10° N 23:36:08 16° NNE 23:36:08 16° NNE
ATLAS 2A CENTAUR R/B 4.2 23:33:56 10° WSW 23:44:51 41° SW 23:44:51 41° SW
H-2A R/B 4.4 23:57:47 17° WNW 23:57:47 17° WNW 23:59:47 10° NW
